Location: Newark
(27.9675°N, 86.8869°E)
Time: 20:14:55
(UTC+00:00)

Explorer 11/Cluster Stage 4 - Visible Passes

Search period start: 17 October 2019 00:00
Search period end: 27 October 2019 00:00
Orbit: 467 x 1259 km, 28.8° (Epoch: 15 October)

Date Brightness Start Highest point End Pass type
(mag) Time Alt. Az. Time Alt. Az. Time Alt. Az.
22 Oct 8.7 23:29:03 10° S 23:30:42 12° SSE 23:32:16 10° SE visible
23 Oct 8.5 23:17:18 10° SSW 23:20:08 16° SSE 23:22:42 10° ESE visible
24 Oct 8.3 23:05:55 10° SSW 23:09:34 20° SSE 23:12:47 10° ESE visible
25 Oct 8.0 22:54:54 11° SSW 22:59:01 25° SSE 23:02:41 10° ESE visible
26 Oct 7.7 22:45:23 18° SSW 22:48:26 31° SSE 22:52:30 10° E visible
